cover

Sebastian Krieg - Space Oddity (Original Mix)

Get it on iTunes

Trackname / Key / BPM / Publish dateArtists, Remixers / Label
126 bpm, 5A / C minor, 2014-05-22, Progressive House,  2  31

Tracks in release Housesession Ibiza 2014 Sampler

#Trackname / Key / BPM / Publish dateArtists, Remixers / Label
1 123 bpm, 5A / C minor, 2014-05-22, Indie Dance / Nu Disco,  0  31
2 122 bpm, 8A / A minor, 2014-05-22, Indie Dance / Nu Disco,  0  31
3 125 bpm, 11B / A major, 2014-05-22, House,  0  31
4 123 bpm, 9A / E minor, 2014-05-22, House,  0  31
5 126 bpm, 9B / G major, 2014-05-22, House,  0  31
6 128 bpm, 5A / C minor, 2014-05-22, House,  0  31
7 128 bpm, 7A / D minor, 2014-05-22, House,  0  31
8 126 bpm, 7A / D minor, 2014-05-22, House,  1  31
9 126 bpm, 7A / D minor, 2014-05-22, House,  0  31
10 125 bpm, 2A / Eb minor, 2014-05-22, House,  1  31
11 127 bpm, 7B / F major, 2014-05-22, House,  0  31
12 124 bpm, 8A / A minor, 2014-05-22, House,  0  31
13 125 bpm, 5A / C minor, 2014-05-22, House,  0  31
14 125 bpm, 7A / D minor, 2014-05-22, Tech House,  0  31
15 128 bpm, 5A / C minor, 2014-05-22, House,  0  31
16 124 bpm, 5A / C minor, 2014-05-22, House,  0  31
17 123 bpm, 10A / B minor, 2014-05-22, House,  1  31
18 126 bpm, 8A / A minor, 2014-05-22, House,  0  31
19 126 bpm, 8A / A minor, 2014-05-22, Electro House,  1  31
20 128 bpm, 11A / F# minor, 2014-05-22, Progressive House,  0  31
21 128 bpm, 2A / Eb minor, 2014-05-22, Electro House,  1  31
22 128 bpm, 7B / F major, 2014-05-22, Progressive House,  0  31
23 128 bpm, 11A / F# minor, 2014-05-22, Electro House,  0  31
24 128 bpm, 1A / Ab minor, 2014-05-22, Progressive House,  0  31
25 128 bpm, 4B / Ab major, 2014-05-22, Electro House,  0  31
26 128 bpm, 1A / Ab minor, 2014-05-22, Progressive House,  0  31
27 126 bpm, 7B / F major, 2014-05-22, House,  0  31
28 128 bpm, 11B / A major, 2014-05-22, Progressive House,  0  31
29 128 bpm, 7A / D minor, 2014-05-22, Progressive House,  0  31
30 126 bpm, 5A / C minor, 2014-05-22, Progressive House,  2  31
31 126 bpm, 7A / D minor, 2014-05-22, House,  0  31

Recommendations

#Trackname / Key / BPM / Publish dateArtists, Remixers / Label
1 123 bpm, 8A / A minor, 2014-05-05, Techno,  98  1   3
2 125 bpm, 10A / B minor, 2014-04-14, Progressive House,  97  1   2
3 0 bpm, 8B / C major, 2014-05-06, Dance,  68  1   6
1
4 124 bpm, 8A / A minor, 2014-04-28, Techno,  47  1   5
5 127 bpm, 8A / A minor, 2014-05-12, Techno,  40  1   3
6 130 bpm, 12B / E major, 2014-04-28, Trance,  39  1   1
7 124 bpm, 8A / A minor, 2014-04-28, Techno,  23  1   3
8 138 bpm, 3B / Db major, 2014-04-28, Trance,  14  1   1
9 128 bpm, 4A / F minor, 2014-05-05, Trance,  12  1   2
10 136 bpm, 6A / G minor, 2014-05-19, Trance,  11  1   2
11 128 bpm, 11B / A major, 2014-05-02, Trance,  7  1   15
12 140 bpm, 3A / Bb minor, 2014-05-26, Trance,  5  1   10
13 128 bpm, 8A / A minor, 2014-04-28, Trance,  3  1   1
14 128 bpm, 7B / F major, 2014-03-10, Progressive House,  3  1   64
15 128 bpm, 6B / Bb major, 2014-04-21, Progressive House,  2  1   20
16 126 bpm, 10B / D major, 2014-03-10, Progressive House,  1  1   64
17 125 bpm, 11B / A major, 2014-03-10, Progressive House,  1  1   64
18 138 bpm, 6A / G minor, 2014-05-26, Trance,  1  1   57

Charts

ArtistTitleGenresPublish date
DJ Francis JamesDJ Francis James Top Ten June 2014Trance, Progressive House2014-05-31
Raul(irok) RiosSupernova Summer Session #3Techno, Progressive House2014-05-24
Please wait...